Other Surface Observations
Issued by NWS

Home | Current Version | Previous Version | Text Only | Print | Product List | Glossary On
Versions: 1 2 3 4 5 6 7 8 9 10 11 12 13 14 15 16 17 18 19 20 21 22 23 24 25 26 27 28 29 30 31 32 33 34 35 36 37 38 39 40 41 42 43 44 45 46 47 48 49 50
000
SXUS52 KTAE 020618
OSOTAE
OSOTAE
North Florida/South Alabama/Southwest Georgia Weather Roundup
National Weather Service Tallahassee Florida
200 AM EDT TUE SEP 02 2014

Note: "fair" indicates few or no clouds below 12,000 feet with no
significant weather and/or obstructions to visibility.

!FLZ017-115-028-034-025-020700
...North Florida...

CITY           SKY/WX    TMP DP  RH WIND       PRES   REMARKS
TALLAHASSEE    FAIR      75  73  93 CALM      30.07F
APALACHICOLA   FAIR      76  74  93 CALM      30.06F
PERRY          FAIR      77  72  83 CALM      30.08F
CROSS CITY       N/A     79  75  87 CALM      30.09F
HOMERVILLE     FAIR      79  73  83 SW3       30.10F
JACKSONVILLE   FAIR      77  75  93 NW5       30.10S
$$

!FLZ112-006-005-002-011-020700
...Florida Panhandle...

CITY           SKY/WX    TMP DP  RH WIND       PRES   REMARKS
MARIANNA       FAIR      76  74  93 CALM      30.07F
BONIFAY        FAIR      73  72  96 CALM      30.07F
PANAMA CITY NW FAIR      76  73  91 CALM      30.06F
TYNDALL AFB    FAIR      77  77 100 CALM      30.07S FOG
TYND DRONE APT FAIR      76  76  99 E2        30.05
DE FUNIAK SPR  FAIR      75  74  96 CALM      30.07F
EGLIN AFB      PTCLDY    82  76  81 VRB3      30.04F
DESTIN         FAIR      85  77  77 S5        30.04F HX  95
HURLBURT       FAIR      83  71  67 CALM      30.04F
CRESTVIEW      FAIR      74  72  93 CALM      30.07F
PENSACOLA      FAIR      80  75  84 S7        30.04F
$$

!ALZ063-066-020700
...South Alabama...

CITY           SKY/WX    TMP DP  RH WIND       PRES   REMARKS
DOTHAN         FAIR      76  71  85 CALM      30.11F
OZARK CAIRNS   FAIR      76  72  89 SE2       30.07F
FT RUCKER HELI FAIR      75  71  87 CALM      30.06F
RUCKER HELI 3  FAIR      77  72  83 S2        30.09F
RUCKER HELI 2  FAIR      75  72  90 CALM      30.07F
FLORALA APT    FAIR      77  73  87 CALM      30.08F
ANDALUSIA      FAIR      78  73  84 CALM      30.06F
TROY           FAIR      76  72  87 CALM      30.08S
EUFALA         FAIR      74  73  97 CALM      30.07F
MOBILE         FAIR      79  76  90 S6        30.04F
$$

!GAZ120>161-020700
...Southwest and South Central Georgia...

CITY           SKY/WX    TMP DP  RH WIND       PRES   REMARKS
THOMASVILLE    FAIR      79  79 100 CALM      30.11F
BAINBRIDGE     FAIR      79  77  94 CALM      30.08F
MOODY AFB      LGT RAIN  74  73  95 N2        30.10F
VALDOSTA       LGT RAIN  74  72  93 CALM      30.10F
MOULTRIE       FAIR      77  72  83 CALM      30.10F
BLAKELY        FAIR      77  72  83 CALM        N/A
ALBANY         FAIR      77  72  84 S3        30.10F
TIFTON         FAIR      74  73  94 CALM      30.09F
FITZGERALD     MOCLDY    78  73  83 CALM      30.10F
CORDELE        FAIR      81  72  72 S6        30.10F
AMERICUS       FAIR      75  70  83 S3        30.11S
$$

!GMZ750-755-770-775-020700
...Coastal and Buoy Obs...

STATION/POSITION TIME  TEMP    WIND        PRES    VSBY  WAVE
                       AIR SEA DIR/SP/G                  HT/PER
                 (UTC) (F)     (DEG/KT/KT) (MB)    (MI)  (FT/S)
KEATON BEACH     0600   79      50/  3/  4 1018.4F
CEDAR KEY        0600   82      40/  3/  3 1019.3F
C TOWER          0600   83      40/  2/  2 1018.1F
APALACHICOLA BUO 0600   84 86   90/  4/  6 1018.3F         2/ 8
PANAMA CITY BUOY 0549   84 86  130/  6/  6 1018.0F         3/ 6
MOBILE BUOY      0515   83 85  150/  8/ 10 1017.2F
ORANGE BCH AL BU 0600   84 86  170/ 14/ 16 1017.0F         3/ 8
$$



USA.gov is the U.S. government's official web portal to all federal, state and local government web resources and services.